This demonstration page uses our WeatherBlox Daily Observations layout. Learn more.

39.92423, -83.80882

Hourly Observations for April 5, 2015

Temp ( °F °C ) Dew Point ( °F °C ) Humidity (%) Winds ( mph kmh ) Pressure ( in mb ) Visibility ( mi km ) Precip ( " mm )
12:56 am 00:56 Clear 41 5 31 -0.5 68 68 SW 9 15 30.27 1025 8 12.87472 0 0
1:56 am 01:56 Clear 40 4.4 31 -0.5 71 71 SW 8 13 30.27 1025 8 12.87472 0 0
2:56 am 02:56 Clear 39 3.8 30 -1.1 71 71 SW 8 13 30.26 1025 8 12.87472 0 0
3:56 am 03:56 Clear 39 3.8 30 -1.1 71 71 SSW 8 13 30.23 1024 8 12.87472 0 0
4:56 am 04:56 Clear 39 3.8 30 -1.1 71 71 SSW 10 17 30.23 1024 8 12.87472 0 0
5:56 am 05:56 Clear 38 3.3 30 -1.1 73 73 SW 9 15 30.24 1024 8 12.87472 0 0
6:56 am 06:56 Clear 37 2.7 30 -1.1 76 76 SSW 9 15 30.25 1025 8 12.87472 0 0
7:56 am 07:56 Hazy 38 3.3 30 -1.1 73 73 SSW 10 17 30.27 1025 6 9.65604 0 0
8:56 am 08:56 Sunny 42 5.5 32 0 68 68 SW 10 17 30.27 1025 7 11.26538 0 0
9:56 am 09:56 Sunny 48 8.8 31 -0.5 52 52 SW 13 20 30.27 1025 7 11.26538 0 0
10:56 am 10:56 Sunny 54 12.2 30 -1.1 40 40 WSW 15 24 30.26 1025 7 11.26538 0 0
11:56 am 11:56 Sunny 56 13.3 26 -3.3 32 32 WSW 18 30 30.25 1024 7 11.26538 0 0
12:56 pm 12:56 Sunny 58 14.4 25 -3.8 28 28 SW 16 26 30.23 1024 7 11.26538 0 0
1:56 pm 13:56 Sunny 60 15.5 27 -2.7 29 29 SSW 12 19 30.21 1023 7 11.26538 0 0
2:56 pm 14:56 Sunny 61 16.1 26 -3.3 26 26 SSW 12 19 30.17 1022 7 11.26538 0 0
3:56 pm 15:56 Sunny 61 16.1 25 -3.8 25 25 SSW 16 26 30.16 1021 7 11.26538 0 0
4:56 pm 16:56 Sunny 62 16.6 27 -2.7 27 27 SSW 14 22 30.14 1021 7 11.26538 0 0
5:56 pm 17:56 Sunny 62 16.6 25 -3.8 25 25 SSW 13 20 30.13 1020 7 11.26538 0 0
6:56 pm 18:56 Sunny 60 15.5 26 -3.3 27 27 SSW 10 17 30.13 1020 7 11.26538 0 0
7:56 pm 19:56 Sunny 56 13.3 26 -3.3 32 32 SSW 8 13 30.14 1021 7 11.26538 0 0
8:56 pm 20:56 Clear 52 11.1 26 -3.3 37 37 S 5 7 30.16 1021 8 12.87472 0 0
9:56 pm 21:56 Clear 52 11.1 25 -3.8 35 35 S 7 11 30.15 1021 8 12.87472 0 0
10:56 pm 22:56 Clear 50 10 25 -3.8 38 38 S 3 6 30.15 1021 8 12.87472 0 0
11:56 pm 23:56 Clear 47 8.3 26 -3.3 44 44 SSE 3 6 30.14 1021 8 12.87472 0 0

Powered by AerisWeather